Other Public Products
Issued by NWS Grand Forks, ND

Home | Current Version | Previous Version | Text Only | Print | Product List | Glossary On
Versions: 1 2 3 4 5 6 7 8 9 10 11 12 13 14 15 16 17 18 19 20 21 22 23 24 25 26 27 28 29 30 31 32 33 34 35 36 37 38 39 40 41 42 43 44 45 46 47 48 49 50
358
FPUS83 KFGF 250910
OPUFGF
PRAIRIE TO PINES WEATHER ROUNDUP
NATIONAL WEATHER SERVICE EASTERN NORTH DAKOTA/GRAND FORKS ND
400 AM CDT THU MAY 25 2017

 **SATELLITE DATA USED TO AUGMENT SKY COVER AT AUTOMATED STATIONS**
 *****  WEATHER ACROSS EASTERN NORTH DAKOTA  *****

CITY           SKY/WX    TMP DP  RH WIND       PRES   REMARKS
GRAND FORKS    FAIR      50  43  77 SE12      29.58F
GRAND FORKS AF FAIR      48  41  78 SE8       29.58F
GRAND CITY NWS NOT AVBL
BUXTON         NOT AVBL
DEVILS LAKE    FAIR      51  43  74 SE20G26   29.51F
FARGO          FAIR      52  42  69 SE12      29.60F
WAHPETON ARPT  FAIR      46  41  81 SE9       29.62R
$$

 *****  WEATHER ACROSS CENTRAL AND WESTERN NORTH DAKOTA  *****

CITY           SKY/WX    TMP DP  RH WIND       PRES   REMARKS
JAMESTOWN      FAIR      50  43  77 SE21G30   29.48F
BISMARCK       CLOUDY    53  48  83 SE7       29.42R
MINOT          CLOUDY    54  49  83 SE9       29.40S
MINOT AFB      DRIZZLE   53  51  93 S17       29.36F
GARRISON         N/A     51  48  89 E8        29.40F
WILLISTON      FAIR      49  46  90 SW5       29.38R
DICKINSON      FAIR      44  44 100 CALM      29.38R
HETTINGER      FAIR      48  45  89 NE8       29.40R
$$

 *****  OTHER OBSERVATIONS NORTHEAST NORTH DAKOTA  *****

CITY           SKY/WX    TMP DP  RH WIND       PRES   REMARKS
WALHALLA       NOT AVBL
LANGDON        NOT AVBL
CAVALIER       NOT AVBL
GRAFTON        NOT AVBL
CANDO          NOT AVBL
FORT TOTTEN      N/A     51  43  75 SE14      29.95
ROLLA          NOT AVBL
RUGBY          NOT AVBL
 ***** THE ABOVE OBSERVATIONS ARE NON NWS ARE NOT QUALITY
        CONTROLLED AND MAY MIS-REPORT RAIN FOR SNOW...
$$

 *****  OTHER OBSERVATIONS SOUTHEAST NORTH DAKOTA *****

CITY           SKY/WX    TMP DP  RH WIND       PRES   REMARKS
COOPERSTOWN    NOT AVBL
VALLEY CITY    NOT AVBL
OAKES          NOT AVBL
GWINNER        NOT AVBL
SHEYENNE NWR     N/A     47  45  93 SE7       29.95S
BUFFALO        NOT AVBL
WYNDMERE         N/A     48  45  87 SE9         N/A
 ***** THE ABOVE OBSERVATIONS ARE NON NWS ARE NOT QUALITY
       CONTROLLED AND MAY MIS-REPORT RAIN FOR SNOW...
$$

  *****  WEATHER ACROSS NORTHERN MINNESOTA  *****

CITY           SKY/WX    TMP DP  RH WIND       PRES   REMARKS
FLAG ISLAND    FAIR      52  45  76 S20       29.67R
WARROAD        FAIR      48  43  81 SE7       29.67S
ROSEAU         FAIR      48  43  81 SE8       29.66R
HALLOCK        FAIR      50  43  76 SE13      29.60F
THF RVR FALLS  FAIR      46  41  82 SE10      29.65R
HALSTAD          N/A     47  41  79 SE12        N/A
FOSSTON        FAIR      45  39  81 SE6       29.66R
BAUDETTE       FAIR      43  39  86 SE8       29.69S
WASKISH        FAIR      45  39  81 E3        29.69F
CROOKSTON      FAIR      46  43  87 SE12      29.62F
$$
  *****  WEATHER ACROSS CENTRAL AND WEST MINNESOTA  *****

CITY           SKY/WX    TMP DP  RH WIND       PRES   REMARKS
BEMIDJI        FAIR      45  42  89 E8        29.67F
PARK RAPIDS    FAIR      49  42  77 E7        29.66S
WADENA         FAIR      46  43  87 E6        29.66S
DETROIT LAKES  FAIR      46  43  87 SE7       29.65F
MOORHEAD       FAIR      50  41  71 SE8       29.62S
FERGUS FALLS   FAIR      52  41  66 SE10      29.62S
ELBOW LAKE     FAIR      49  43  80 SE9       29.63S
MORRIS MN      FAIR      48  45  87 SE10      29.62F
STAPLES        FAIR      48  43  81 E5        29.67S
WHEATON        FAIR      48  45  87 SE12      29.62S
$$
  *****  WEATHER ELSEWHERE ACROSS MINNESOTA  *****

CITY           SKY/WX    TMP DP  RH WIND       PRES   REMARKS
DULUTH         FAIR      42  40  92 E8        29.73R
INTRNTL FALLS  FAIR      40  36  86 SE5       29.72S
ELY            FAIR      32  30  93 CALM      29.74F
CLOQUET        FAIR      39  37  93 CALM      29.73S FOG
BRAINERD       CLOUDY    49  45  86 VRB3      29.69S
HIBBING        FAIR      32  32 100 NW3       29.73R
ALEXANDRIA     FAIR      46  42  86 SE8       29.66S
SAINT CLOUD    FAIR      48  47  96 E6        29.68F
MINNEAPOLIS    FAIR      51  47  86 E7        29.69S
$$

  *****  WEATHER ACROSS SOUTH DAKOTA  *****

CITY           SKY/WX    TMP DP  RH WIND       PRES   REMARKS
SIOUX FALLS    FAIR      50  45  83 SE14      29.59F
BROOKINGS      FAIR      47  43  86 SE14      29.59F
WATERTOWN      FAIR      49  42  77 SE12G22   29.55F
HURON          FAIR      51  44  77 SE17G30   29.49F
SISSETON         N/A     45  43  93 S9        29.58F
ABERDEEN       FAIR      52  42  69 SE17      29.51R
MITCHELL       FAIR      52  44  74 SE21      29.52F
PIERRE         FAIR      56  42  59 SE24G31   29.33F
MOBRIDGE       FAIR      53  44  71 SE18      29.36F
RAPID CITY     FAIR      54  44  69 N18       29.41R
$$

  *****  SOME WEATHER IN NEARBY STATES *****

CITY           SKY/WX    TMP DP  RH WIND       PRES   REMARKS
GLASGOW MT     MOCLDY    50  26  39 SW15      29.34F
GREAT FALLS MT LGT RAIN  41  37  86 W20       29.58S
CHEYENNE WY    FAIR      53  38  56 W12       29.60S
SCOTTSBLUFF NE FAIR      55  45  68 CALM      29.46R
OMAHA NE       FAIR      50  44  80 SE6       29.65F
DES MOINES IA  FAIR      49  46  90 CALM      29.68S
DAVENPORT IA   CLOUDY    52  50  93 NW8       29.65S
CHICAGO IL     CLOUDY    55  50  83 N12       29.55R
EAU CLAIRE WI  CLOUDY    52  49  89 NE3       29.70S
LA CROSSE WI   FAIR      49  48  97 CALM      29.69S FOG
$$

  *****  SOME NATIONAL WEATHER *****

CITY           SKY/WX    TMP DP  RH WIND       PRES   REMARKS
LA GUARDIA NY  LGT RAIN  57  53  86 E7        29.74F
RALEIGH NC     FAIR      61  60  97 S7        29.50F
ATLANTA GA     MOCLDY    57  55  93 W9        29.64S
NEW ORLEANS LA FAIR      60  55  83 CALM      29.81R
OKLAHOMA CITY  FAIR      53  47  79 SE9       29.68F
ALBUQUERQUE NM FAIR      72  22  15 W10G21    29.81R
SALT LAKE CITY MOCLDY    61  38  42 N17       29.63R
LOS ANGELES CA CLOUDY    60  52  74 CALM      29.86S
BOISE ID       FAIR      48  30  49 W10       29.72S
SEATTLE WA     FAIR      50  44  80 CALM      29.91F
$$

*** WEATHER ACROSS MANITOBA...SASKATCHEWAN AND ONTARIO ***
                ***ONTARIO***

CITY           SKY/WX    TMP DP  RH WIND       PRES   REMARKS
GERALDTON      CLEAR     37  34  87 CALM      29.82R
THUNDER BAY    CLEAR     36  36 100 W5        29.79R
SIOUX LOOKOUT  CLEAR     39  32  75 SE5       29.76R
TORONTO        LGT RAIN  57  55  94 E13G18    29.59F FOG
BIG TROUT LK   CLEAR     41  32  70 SE3       29.75S
PICKLE LAKE    NOT AVBL
DRYDEN         CLEAR     48  37  66 SE7       29.74S
KENORA         CLEAR     48  39  71 SE8       29.69S
$$
                *** MANITOBA***

CITY           SKY/WX    TMP DP  RH WIND       PRES   REMARKS
BRANDON        LGT RAIN  52  46  82 SE15      29.44F
DAUPHIN        LGT RAIN  55  46  71 S23G30    29.41F
ISLAND LAKE    PTCLDY    50  36  57 SE6       29.65S
PILOT MOUND      N/A     50  41  71 SE22G28     N/A
THE PAS        CLOUDY    57  45  62 S6        29.38R
THOMPSON       MOCLDY    50  37  62 VRB2      29.54S
WINNIPEG       PTCLDY    52  41  66 SE14G20   29.59S
LYNN LAKE      HAZE      50  39  66 E6        29.47S VSB 1/8
CHURCHILL      MOCLDY    43  41  93 NE7       29.60R
GILLAM         MOCLDY    46  36  66 VRB2      29.60R
$$
                ***SASKATCHEWAN***

CITY           SKY/WX    TMP DP  RH WIND       PRES   REMARKS
ESTEVAN        PTCLDY    50  48  93 S13       29.33S
KINDERSLEY     LGT RAIN  46  45  93 NW8       29.18F
LLOYDMINSTER   RAIN      48  48 100 N23G35    29.28R
PRINCE ALBERT  MOCLDY    50  45  81 SE7       29.22R
REGINA         CLEAR     43  30  61 S9        29.25R
YORKTON          N/A     54  48  82 SE21G29   29.29S



USA.gov is the U.S. government's official web portal to all federal, state and local government web resources and services.